Year,Month,Day,Hour,Minute,Value (Times are PST for temperature in C)
2012,06,22,00,00,15.40
2012,06,22,00,01,15.40
2012,06,22,00,02,15.40
2012,06,22,00,03,15.40
2012,06,22,00,04,15.40
2012,06,22,00,05,15.40
2012,06,22,00,06,15.40
2012,06,22,00,07,15.40
2012,06,22,00,08,15.40
2012,06,22,00,09,15.30
2012,06,22,00,10,15.30
2012,06,22,00,11,15.30
2012,06,22,00,12,15.30
2012,06,22,00,13,15.30
2012,06,22,00,14,15.30
2012,06,22,00,15,15.30
2012,06,22,00,16,15.30
2012,06,22,00,17,15.30
2012,06,22,00,18,15.30
2012,06,22,00,19,15.30
2012,06,22,00,20,15.30
2012,06,22,00,21,15.30
2012,06,22,00,22,15.30
2012,06,22,00,23,15.30
2012,06,22,00,24,15.30
2012,06,22,00,25,15.30
2012,06,22,00,26,15.30
2012,06,22,00,27,15.30
2012,06,22,00,28,15.30
2012,06,22,00,29,15.30
2012,06,22,00,30,15.30
2012,06,22,00,31,15.30
2012,06,22,00,32,15.30
2012,06,22,00,33,15.20
2012,06,22,00,34,15.20
2012,06,22,00,35,15.20
2012,06,22,00,36,15.20
2012,06,22,00,37,15.20
2012,06,22,00,38,15.20
2012,06,22,00,39,15.20
2012,06,22,00,40,15.20
2012,06,22,00,41,15.20
2012,06,22,00,42,15.10
2012,06,22,00,43,15.10
2012,06,22,00,44,15.10
2012,06,22,00,45,15.10
2012,06,22,00,46,15.10
2012,06,22,00,47,15.10
2012,06,22,00,48,15.10
2012,06,22,00,49,15.10
2012,06,22,00,50,15.10
2012,06,22,00,51,15.10
2012,06,22,00,52,15.10
2012,06,22,00,53,15.10
2012,06,22,00,54,15.10
2012,06,22,00,55,15.10
2012,06,22,00,56,15.10
2012,06,22,00,57,15.10
2012,06,22,00,58,15.10
2012,06,22,00,59,15.10
2012,06,22,01,00,15.10
2012,06,22,01,01,15.10
2012,06,22,01,02,15.10
2012,06,22,01,03,15.10
2012,06,22,01,04,15.10
2012,06,22,01,05,15.10
2012,06,22,01,06,15.10
2012,06,22,01,07,15.10
2012,06,22,01,08,15.10
2012,06,22,01,09,15.10
2012,06,22,01,10,15.10
2012,06,22,01,11,15.10
2012,06,22,01,12,15.10
2012,06,22,01,13,15.10
2012,06,22,01,14,15.10
2012,06,22,01,15,15.10
2012,06,22,01,16,15.10
2012,06,22,01,17,15.10
2012,06,22,01,18,15.10
2012,06,22,01,19,15.10
2012,06,22,01,20,15.10
2012,06,22,01,21,15.10
2012,06,22,01,22,15.10
2012,06,22,01,23,15.10
2012,06,22,01,24,15.10
2012,06,22,01,25,15.10
2012,06,22,01,26,15.10
2012,06,22,01,27,15.10
2012,06,22,01,28,15.10
2012,06,22,01,29,15.10
2012,06,22,01,30,15.10
2012,06,22,01,31,15.10
2012,06,22,01,32,15.10
2012,06,22,01,33,15.10
2012,06,22,01,34,15.10
2012,06,22,01,35,15.10
2012,06,22,01,36,15.10
2012,06,22,01,37,15.10
2012,06,22,01,38,15.10
2012,06,22,01,39,15.10
2012,06,22,01,40,15.10
2012,06,22,01,41,15.10
2012,06,22,01,42,15.10
2012,06,22,01,43,15.10
2012,06,22,01,44,15.10
2012,06,22,01,45,15.10
2012,06,22,01,46,15.00
2012,06,22,01,47,15.00
2012,06,22,01,48,15.00
2012,06,22,01,49,15.00
2012,06,22,01,50,15.10
2012,06,22,01,51,15.10
2012,06,22,01,52,15.00
2012,06,22,01,53,15.00
2012,06,22,01,54,15.00
2012,06,22,01,55,15.00
2012,06,22,01,56,14.90
2012,06,22,01,57,14.90
2012,06,22,01,58,14.90
2012,06,22,01,59,14.90
2012,06,22,02,00,14.90
2012,06,22,02,01,14.90
2012,06,22,02,02,14.90
2012,06,22,02,03,14.90
2012,06,22,02,04,14.90
2012,06,22,02,05,14.90
2012,06,22,02,06,14.90
2012,06,22,02,07,14.90
2012,06,22,02,08,14.90
2012,06,22,02,09,15.00
2012,06,22,02,10,15.00
2012,06,22,02,11,15.00
2012,06,22,02,12,15.00
2012,06,22,02,13,15.00
2012,06,22,02,14,15.00
2012,06,22,02,15,15.00
2012,06,22,02,16,15.00
2012,06,22,02,17,15.00
2012,06,22,02,18,15.00
2012,06,22,02,19,15.00
2012,06,22,02,20,15.00
2012,06,22,02,21,15.00
2012,06,22,02,22,15.00
2012,06,22,02,23,15.00
2012,06,22,02,24,15.00
2012,06,22,02,25,15.00
2012,06,22,02,26,15.00
2012,06,22,02,27,15.00
2012,06,22,02,28,15.00
2012,06,22,02,29,14.90
2012,06,22,02,30,14.90
2012,06,22,02,31,14.90
2012,06,22,02,32,14.90
2012,06,22,02,33,14.90
2012,06,22,02,34,14.90
2012,06,22,02,35,14.90
2012,06,22,02,36,14.90
2012,06,22,02,37,14.90
2012,06,22,02,38,14.90
2012,06,22,02,39,14.90
2012,06,22,02,40,14.90
2012,06,22,02,41,14.90
2012,06,22,02,42,14.90
2012,06,22,02,43,14.90
2012,06,22,02,44,14.90
2012,06,22,02,45,14.90
2012,06,22,02,46,14.80
2012,06,22,02,47,14.80
2012,06,22,02,48,14.80
2012,06,22,02,49,14.80
2012,06,22,02,50,14.80
2012,06,22,02,51,14.70
2012,06,22,02,52,14.70
2012,06,22,02,53,14.70
2012,06,22,02,54,14.70
2012,06,22,02,55,14.70
2012,06,22,02,56,14.70
2012,06,22,02,57,14.70
2012,06,22,02,58,14.70
2012,06,22,02,59,14.70
2012,06,22,03,00,14.60
2012,06,22,03,01,14.60
2012,06,22,03,02,14.60
2012,06,22,03,03,14.60
2012,06,22,03,04,14.60
2012,06,22,03,05,14.60
2012,06,22,03,06,14.60
2012,06,22,03,07,14.60
2012,06,22,03,08,14.60
2012,06,22,03,09,14.60
2012,06,22,03,10,14.60
2012,06,22,03,11,14.60
2012,06,22,03,12,14.60
2012,06,22,03,13,14.60
2012,06,22,03,14,14.60
2012,06,22,03,15,14.60
2012,06,22,03,16,14.60
2012,06,22,03,17,14.60
2012,06,22,03,18,14.60
2012,06,22,03,19,14.50
2012,06,22,03,20,14.50
2012,06,22,03,21,14.50
2012,06,22,03,22,14.50
2012,06,22,03,23,14.40
2012,06,22,03,24,14.40
2012,06,22,03,25,14.40
2012,06,22,03,26,14.40
2012,06,22,03,27,14.40
2012,06,22,03,28,14.40
2012,06,22,03,29,14.40
2012,06,22,03,30,14.40
2012,06,22,03,31,14.30
2012,06,22,03,32,14.40
2012,06,22,03,33,14.40
2012,06,22,03,34,14.30
2012,06,22,03,35,14.30
2012,06,22,03,36,14.30
2012,06,22,03,37,14.30
2012,06,22,03,38,14.30
2012,06,22,03,39,14.30
2012,06,22,03,40,14.30
2012,06,22,03,41,14.30
2012,06,22,03,42,14.30
2012,06,22,03,43,14.30
2012,06,22,03,44,14.30
2012,06,22,03,45,14.30
2012,06,22,03,46,14.20
2012,06,22,03,47,14.20
2012,06,22,03,48,14.20
2012,06,22,03,49,14.20
2012,06,22,03,50,14.20
2012,06,22,03,51,14.20
2012,06,22,03,52,14.10
2012,06,22,03,53,14.10
2012,06,22,03,54,14.10
2012,06,22,03,55,14.10
2012,06,22,03,56,14.10
2012,06,22,03,57,14.10
2012,06,22,03,58,14.10
2012,06,22,03,59,14.10
2012,06,22,04,00,14.00
2012,06,22,04,01,14.00
2012,06,22,04,02,14.00
2012,06,22,04,03,14.00
2012,06,22,04,04,14.00
2012,06,22,04,05,14.00
2012,06,22,04,06,14.00
2012,06,22,04,07,14.00
2012,06,22,04,08,14.00
2012,06,22,04,09,13.90
2012,06,22,04,10,13.90
2012,06,22,04,11,13.90
2012,06,22,04,12,13.90
2012,06,22,04,13,13.90
2012,06,22,04,14,13.90
2012,06,22,04,15,13.90
2012,06,22,04,16,14.00
2012,06,22,04,17,14.00
2012,06,22,04,18,14.00
2012,06,22,04,19,14.00
2012,06,22,04,20,14.10
2012,06,22,04,21,14.10
2012,06,22,04,22,14.10
2012,06,22,04,23,14.00
2012,06,22,04,24,14.00
2012,06,22,04,25,14.00
2012,06,22,04,26,14.00
2012,06,22,04,27,14.00
2012,06,22,04,28,14.00
2012,06,22,04,29,14.00
2012,06,22,04,30,14.00
2012,06,22,04,31,14.00
2012,06,22,04,32,14.00
2012,06,22,04,33,14.00
2012,06,22,04,34,14.00
2012,06,22,04,35,14.00
2012,06,22,04,36,14.00
2012,06,22,04,37,13.90
2012,06,22,04,38,13.90
2012,06,22,04,39,13.90
2012,06,22,04,40,13.90
2012,06,22,04,41,13.90
2012,06,22,04,42,13.90
2012,06,22,04,43,13.80
2012,06,22,04,44,13.80
2012,06,22,04,45,13.80
2012,06,22,04,46,13.80
2012,06,22,04,47,13.70
2012,06,22,04,48,13.70
2012,06,22,04,49,13.70
2012,06,22,04,50,13.70
2012,06,22,04,51,13.60
2012,06,22,04,52,13.60
2012,06,22,04,53,13.60
2012,06,22,04,54,13.60
2012,06,22,04,55,13.60
2012,06,22,04,56,13.50
2012,06,22,04,57,13.50
2012,06,22,04,58,13.50
2012,06,22,04,59,13.40
2012,06,22,05,00,13.40
2012,06,22,05,01,13.40
2012,06,22,05,02,13.40
2012,06,22,05,03,13.40
2012,06,22,05,04,13.30
2012,06,22,05,05,13.30
2012,06,22,05,06,13.30
2012,06,22,05,07,13.30
2012,06,22,05,08,13.20
2012,06,22,05,09,13.20
2012,06,22,05,10,13.20
2012,06,22,05,11,13.20
2012,06,22,05,12,13.20
2012,06,22,05,13,13.10
2012,06,22,05,14,13.10
2012,06,22,05,15,13.10
2012,06,22,05,16,13.10
2012,06,22,05,17,13.00
2012,06,22,05,18,13.00
2012,06,22,05,19,13.00
2012,06,22,05,20,13.00
2012,06,22,05,21,12.90
2012,06,22,05,22,12.90
2012,06,22,05,23,12.90
2012,06,22,05,24,12.90
2012,06,22,05,25,12.80
2012,06,22,05,26,12.80
2012,06,22,05,27,12.80
2012,06,22,05,28,12.80
2012,06,22,05,29,12.80
2012,06,22,05,30,12.80
2012,06,22,05,31,12.80
2012,06,22,05,32,12.80
2012,06,22,05,33,12.80
2012,06,22,05,34,12.80
2012,06,22,05,35,12.80
2012,06,22,05,36,12.70
2012,06,22,05,37,12.70
2012,06,22,05,38,12.70
2012,06,22,05,39,12.70
2012,06,22,05,40,12.70
2012,06,22,05,41,12.70
2012,06,22,05,42,12.70
2012,06,22,05,43,12.70
2012,06,22,05,44,12.70
2012,06,22,05,45,12.80
2012,06,22,05,46,12.80
2012,06,22,05,47,12.80
2012,06,22,05,48,12.80
2012,06,22,05,49,12.90
2012,06,22,05,50,12.90
2012,06,22,05,51,12.90
2012,06,22,05,52,13.00
2012,06,22,05,53,13.00
2012,06,22,05,54,13.00
2012,06,22,05,55,13.10
2012,06,22,05,56,13.10
2012,06,22,05,57,13.10
2012,06,22,05,58,13.20
2012,06,22,05,59,13.20
2012,06,22,06,00,13.20
2012,06,22,06,01,13.30
2012,06,22,06,02,13.30
2012,06,22,06,03,13.30
2012,06,22,06,04,13.40
2012,06,22,06,05,13.40
2012,06,22,06,06,13.50
2012,06,22,06,07,13.60
2012,06,22,06,08,13.60
2012,06,22,06,09,13.70
2012,06,22,06,10,13.70
2012,06,22,06,11,13.80
2012,06,22,06,12,13.80
2012,06,22,06,13,13.90
2012,06,22,06,14,13.90
2012,06,22,06,15,14.00
2012,06,22,06,16,14.00
2012,06,22,06,17,14.10
2012,06,22,06,18,14.10
2012,06,22,06,19,14.20
2012,06,22,06,20,14.20
2012,06,22,06,21,14.20
2012,06,22,06,22,14.30
2012,06,22,06,23,14.30
2012,06,22,06,24,14.30
2012,06,22,06,25,14.40
2012,06,22,06,26,14.40
2012,06,22,06,27,14.40
2012,06,22,06,28,14.40
2012,06,22,06,29,14.50
2012,06,22,06,30,14.50
2012,06,22,06,31,14.60
2012,06,22,06,32,14.60
2012,06,22,06,33,14.60
2012,06,22,06,34,14.70
2012,06,22,06,35,14.70
2012,06,22,06,36,14.80
2012,06,22,06,37,14.80
2012,06,22,06,38,14.80
2012,06,22,06,39,14.80
2012,06,22,06,40,14.90
2012,06,22,06,41,14.90
2012,06,22,06,42,14.90
2012,06,22,06,43,14.90
2012,06,22,06,44,14.90
2012,06,22,06,45,14.90
2012,06,22,06,46,14.90
2012,06,22,06,47,15.00
2012,06,22,06,48,15.00
2012,06,22,06,49,15.00
2012,06,22,06,50,15.00
2012,06,22,06,51,15.10
2012,06,22,06,52,15.10
2012,06,22,06,53,15.10
2012,06,22,06,54,15.10
2012,06,22,06,55,15.20
2012,06,22,06,56,15.20
2012,06,22,06,57,15.30
2012,06,22,06,58,15.30
2012,06,22,06,59,15.30
2012,06,22,07,00,15.40
2012,06,22,07,01,15.40
2012,06,22,07,02,15.50
2012,06,22,07,03,15.50
2012,06,22,07,04,15.60
2012,06,22,07,05,15.60
2012,06,22,07,06,15.60
2012,06,22,07,07,15.70
2012,06,22,07,08,15.70
2012,06,22,07,09,15.80
2012,06,22,07,10,15.90
2012,06,22,07,11,15.90
2012,06,22,07,12,16.00
2012,06,22,07,13,16.10
2012,06,22,07,14,16.20
2012,06,22,07,15,16.30
2012,06,22,07,16,16.40
2012,06,22,07,17,16.40
2012,06,22,07,18,16.50
2012,06,22,07,19,16.50
2012,06,22,07,20,16.50
2012,06,22,07,21,16.60
2012,06,22,07,22,16.60
2012,06,22,07,23,16.60
2012,06,22,07,24,16.60
2012,06,22,07,25,16.60
2012,06,22,07,26,16.60
2012,06,22,07,27,16.60
2012,06,22,07,28,16.50
2012,06,22,07,29,16.50
2012,06,22,07,30,16.50
2012,06,22,07,31,16.40
2012,06,22,07,32,16.40
2012,06,22,07,33,16.40
2012,06,22,07,34,16.30
2012,06,22,07,35,16.30
2012,06,22,07,36,16.30
2012,06,22,07,37,16.30
2012,06,22,07,38,16.30
2012,06,22,07,39,16.30
2012,06,22,07,40,16.30
2012,06,22,07,41,16.30
2012,06,22,07,42,16.30
2012,06,22,07,43,16.30
2012,06,22,07,44,16.30
2012,06,22,07,45,16.30
2012,06,22,07,46,16.30
2012,06,22,07,47,16.20
2012,06,22,07,48,16.20
2012,06,22,07,49,16.20
2012,06,22,07,50,16.10
2012,06,22,07,51,16.00
2012,06,22,07,52,16.00
2012,06,22,07,53,15.90
2012,06,22,07,54,15.90
2012,06,22,07,55,15.80
2012,06,22,07,56,15.80
2012,06,22,07,57,15.80
2012,06,22,07,58,15.70
2012,06,22,07,59,15.60
2012,06,22,08,00,15.60
2012,06,22,08,01,15.50
2012,06,22,08,02,15.50
2012,06,22,08,03,15.50
2012,06,22,08,04,15.40
2012,06,22,08,05,15.40
2012,06,22,08,06,15.40
2012,06,22,08,07,15.40
2012,06,22,08,08,15.40
2012,06,22,08,09,15.30
2012,06,22,08,10,15.30
2012,06,22,08,11,15.30
2012,06,22,08,12,15.30
2012,06,22,08,13,15.30
2012,06,22,08,14,15.30
2012,06,22,08,15,15.40
2012,06,22,08,16,15.40
2012,06,22,08,17,15.40
2012,06,22,08,18,15.40
2012,06,22,08,19,15.40
2012,06,22,08,20,15.50
2012,06,22,08,21,15.50
2012,06,22,08,22,15.60
2012,06,22,08,23,15.60
2012,06,22,08,24,15.70
2012,06,22,08,25,15.70
2012,06,22,08,26,15.80
2012,06,22,08,27,15.80
2012,06,22,08,28,15.90
2012,06,22,08,29,15.90
2012,06,22,08,30,16.00
2012,06,22,08,31,16.10
2012,06,22,08,32,16.20
2012,06,22,08,33,16.20
2012,06,22,08,34,16.30
2012,06,22,08,35,16.30
2012,06,22,08,36,16.40
2012,06,22,08,37,16.40
2012,06,22,08,38,16.40
2012,06,22,08,39,16.50
2012,06,22,08,40,16.50
2012,06,22,08,41,16.60
2012,06,22,08,42,16.60
2012,06,22,08,43,16.60
2012,06,22,08,44,16.70
2012,06,22,08,45,16.70
2012,06,22,08,46,16.70
2012,06,22,08,47,16.80
2012,06,22,08,48,16.80
2012,06,22,08,49,16.80
2012,06,22,08,50,16.80
2012,06,22,08,51,16.80
2012,06,22,08,52,16.80
2012,06,22,08,53,16.90
2012,06,22,08,54,16.90
2012,06,22,08,55,17.00
2012,06,22,08,56,17.00
2012,06,22,08,57,17.10
2012,06,22,08,58,17.10
2012,06,22,08,59,17.20
2012,06,22,09,00,17.20
2012,06,22,09,01,17.30
2012,06,22,09,02,17.30
2012,06,22,09,03,17.30
2012,06,22,09,04,17.30
2012,06,22,09,05,17.30
2012,06,22,09,06,17.30
2012,06,22,09,07,17.30
2012,06,22,09,08,17.30
2012,06,22,09,09,17.30
2012,06,22,09,10,17.30
2012,06,22,09,11,17.30
2012,06,22,09,12,17.30
2012,06,22,09,13,17.40
2012,06,22,09,14,17.40
2012,06,22,09,15,17.50
2012,06,22,09,16,17.60
2012,06,22,09,17,17.60
2012,06,22,09,18,17.60
2012,06,22,09,19,17.60
2012,06,22,09,20,17.60
2012,06,22,09,21,17.60
2012,06,22,09,22,17.60
2012,06,22,09,23,17.60
2012,06,22,09,24,17.50
2012,06,22,09,25,17.50
2012,06,22,09,26,17.40
2012,06,22,09,27,17.40
2012,06,22,09,28,17.40
2012,06,22,09,29,17.30
2012,06,22,09,30,17.30
2012,06,22,09,31,17.30
2012,06,22,09,32,17.40
2012,06,22,09,33,17.40
2012,06,22,09,34,17.40
2012,06,22,09,35,17.40
2012,06,22,09,36,17.40
2012,06,22,09,37,17.30
2012,06,22,09,38,17.30
2012,06,22,09,39,17.20
2012,06,22,09,40,17.10
2012,06,22,09,41,17.10
2012,06,22,09,42,17.10
2012,06,22,09,43,17.00
2012,06,22,09,44,17.00
2012,06,22,09,45,16.90
2012,06,22,09,46,16.90
2012,06,22,09,47,16.90
2012,06,22,09,48,16.80
2012,06,22,09,49,16.80
2012,06,22,09,50,16.80
2012,06,22,09,51,16.80
2012,06,22,09,52,16.70
2012,06,22,09,53,16.70
2012,06,22,09,54,16.60
2012,06,22,09,55,16.60
2012,06,22,09,56,16.50
2012,06,22,09,57,16.50
2012,06,22,09,58,16.40
2012,06,22,09,59,16.40
2012,06,22,10,00,16.50
2012,06,22,10,01,16.50
2012,06,22,10,02,16.60
2012,06,22,10,03,16.60
2012,06,22,10,04,16.60
2012,06,22,10,05,16.60
2012,06,22,10,06,16.50
2012,06,22,10,07,16.40
2012,06,22,10,08,16.40
2012,06,22,10,09,16.30
2012,06,22,10,10,16.30
2012,06,22,10,11,16.20
2012,06,22,10,12,16.20
2012,06,22,10,13,16.20
2012,06,22,10,14,16.20
2012,06,22,10,15,16.20
2012,06,22,10,16,16.20
2012,06,22,10,17,16.20
2012,06,22,10,18,16.20
2012,06,22,10,19,16.20
2012,06,22,10,20,16.20
2012,06,22,10,21,16.20
2012,06,22,10,22,16.20
2012,06,22,10,23,16.20
2012,06,22,10,24,16.20
2012,06,22,10,25,16.20
2012,06,22,10,26,16.20
2012,06,22,10,27,16.20
2012,06,22,10,28,16.20
2012,06,22,10,29,16.20
2012,06,22,10,30,16.20
2012,06,22,10,31,16.20
2012,06,22,10,32,16.30
2012,06,22,10,33,16.30
2012,06,22,10,34,16.30
2012,06,22,10,35,16.20
2012,06,22,10,36,16.20
2012,06,22,10,37,16.20
2012,06,22,10,38,16.20
2012,06,22,10,39,16.10
2012,06,22,10,40,16.10
2012,06,22,10,41,16.10
2012,06,22,10,42,16.00
2012,06,22,10,43,16.00
2012,06,22,10,44,16.00
2012,06,22,10,45,15.90
2012,06,22,10,46,15.90
2012,06,22,10,47,15.90
2012,06,22,10,48,15.90
2012,06,22,10,49,16.00
2012,06,22,10,50,16.00
2012,06,22,10,51,16.00
2012,06,22,10,52,16.00
2012,06,22,10,53,16.00
2012,06,22,10,54,16.00
2012,06,22,10,55,16.00
2012,06,22,10,56,16.00
2012,06,22,10,57,16.00
2012,06,22,10,58,16.00
2012,06,22,10,59,16.00
2012,06,22,11,00,16.10
2012,06,22,11,01,16.10
2012,06,22,11,02,16.10
2012,06,22,11,03,16.10
2012,06,22,11,04,16.10
2012,06,22,11,05,16.10
2012,06,22,11,06,16.10
2012,06,22,11,07,16.10
2012,06,22,11,08,16.10
2012,06,22,11,09,16.00
2012,06,22,11,10,16.00
2012,06,22,11,11,16.00
2012,06,22,11,12,16.00
2012,06,22,11,13,16.00
2012,06,22,11,14,16.00
2012,06,22,11,15,16.00
2012,06,22,11,16,16.00
2012,06,22,11,17,16.00
2012,06,22,11,18,16.10
2012,06,22,11,19,16.10
2012,06,22,11,20,16.10
2012,06,22,11,21,16.10
2012,06,22,11,22,16.20
2012,06,22,11,23,16.20
2012,06,22,11,24,16.20
2012,06,22,11,25,16.20
2012,06,22,11,26,16.20
2012,06,22,11,27,16.20
2012,06,22,11,28,16.30
2012,06,22,11,29,16.30
2012,06,22,11,30,16.30
2012,06,22,11,31,16.30
2012,06,22,11,32,16.40
2012,06,22,11,33,16.40
2012,06,22,11,34,16.40
2012,06,22,11,35,16.40
2012,06,22,11,36,16.40
2012,06,22,11,37,16.40
2012,06,22,11,38,16.40
2012,06,22,11,39,16.40
2012,06,22,11,40,16.50
2012,06,22,11,41,16.40
2012,06,22,11,42,16.50
2012,06,22,11,43,16.40
2012,06,22,11,44,16.40
2012,06,22,11,45,16.40
2012,06,22,11,46,16.40
2012,06,22,11,47,16.40
2012,06,22,11,48,16.30
2012,06,22,11,49,16.30
2012,06,22,11,50,16.20
2012,06,22,11,51,16.20
2012,06,22,11,52,16.20
2012,06,22,11,53,16.20
2012,06,22,11,54,16.10
2012,06,22,11,55,16.10
2012,06,22,11,56,16.10
2012,06,22,11,57,16.10
2012,06,22,11,58,16.00
2012,06,22,11,59,16.00
2012,06,22,12,00,16.00
2012,06,22,12,01,16.00
2012,06,22,12,02,16.00
2012,06,22,12,03,16.00
2012,06,22,12,04,16.00
2012,06,22,12,05,16.00
2012,06,22,12,06,16.00
2012,06,22,12,07,16.00
2012,06,22,12,08,16.00
2012,06,22,12,09,16.00
2012,06,22,12,10,16.00
2012,06,22,12,11,16.00
2012,06,22,12,12,16.00
2012,06,22,12,13,16.10
2012,06,22,12,14,16.10
2012,06,22,12,15,16.10
2012,06,22,12,16,16.10
2012,06,22,12,17,16.10
2012,06,22,12,18,16.10
2012,06,22,12,19,16.10
2012,06,22,12,20,16.10
2012,06,22,12,21,16.20
2012,06,22,12,22,16.20
2012,06,22,12,23,16.20
2012,06,22,12,24,16.20
2012,06,22,12,25,16.20
2012,06,22,12,26,16.20
2012,06,22,12,27,16.20
2012,06,22,12,28,16.20
2012,06,22,12,29,16.20
2012,06,22,12,30,16.20
2012,06,22,12,31,16.20
2012,06,22,12,32,16.20
2012,06,22,12,33,16.20
2012,06,22,12,34,16.20
2012,06,22,12,35,16.20
2012,06,22,12,36,16.20
2012,06,22,12,37,16.30
2012,06,22,12,38,16.30
2012,06,22,12,39,16.30
2012,06,22,12,40,16.30
2012,06,22,12,41,16.30
2012,06,22,12,42,16.30
2012,06,22,12,43,16.30
2012,06,22,12,44,16.30
2012,06,22,12,45,16.30
2012,06,22,12,46,16.30
2012,06,22,12,47,16.30
2012,06,22,12,48,16.30
2012,06,22,12,49,16.30
2012,06,22,12,50,16.30
2012,06,22,12,51,16.30
2012,06,22,12,52,16.30
2012,06,22,12,53,16.30
2012,06,22,12,54,16.30
2012,06,22,12,55,16.30
2012,06,22,12,56,16.30
2012,06,22,12,57,16.30
2012,06,22,12,58,16.30
2012,06,22,12,59,16.30
2012,06,22,13,00,16.30
2012,06,22,13,01,16.30
2012,06,22,13,02,16.30
2012,06,22,13,03,16.30
2012,06,22,13,04,16.20
2012,06,22,13,05,16.20
2012,06,22,13,06,16.20
2012,06,22,13,07,16.20
2012,06,22,13,08,16.10
2012,06,22,13,09,16.10
2012,06,22,13,10,16.10
2012,06,22,13,11,16.10
2012,06,22,13,12,16.10
2012,06,22,13,13,16.00
2012,06,22,13,14,16.00
2012,06,22,13,15,15.90
2012,06,22,13,16,15.90
2012,06,22,13,17,15.90
2012,06,22,13,18,15.80
2012,06,22,13,19,15.70
2012,06,22,13,20,15.70
2012,06,22,13,21,15.60
2012,06,22,13,22,15.50
2012,06,22,13,23,15.50
2012,06,22,13,24,15.40
2012,06,22,13,25,15.30
2012,06,22,13,26,15.30
2012,06,22,13,27,15.20
2012,06,22,13,28,15.20
2012,06,22,13,29,15.10
2012,06,22,13,30,15.10
2012,06,22,13,31,15.00
2012,06,22,13,32,15.00
2012,06,22,13,33,14.90
2012,06,22,13,34,14.90
2012,06,22,13,35,14.90
2012,06,22,13,36,14.80
2012,06,22,13,37,14.80
2012,06,22,13,38,14.80
2012,06,22,13,39,14.80
2012,06,22,13,40,14.80
2012,06,22,13,41,14.80
2012,06,22,13,42,14.70
2012,06,22,13,43,14.70
2012,06,22,13,44,14.70
2012,06,22,13,45,14.70
2012,06,22,13,46,14.70
2012,06,22,13,47,14.70
2012,06,22,13,48,14.70
2012,06,22,13,49,14.70
2012,06,22,13,50,14.70
2012,06,22,13,51,14.70
2012,06,22,13,52,14.60
2012,06,22,13,53,14.60
2012,06,22,13,54,14.60
2012,06,22,13,55,14.60
2012,06,22,13,56,14.60
2012,06,22,13,57,14.60
2012,06,22,13,58,14.50
2012,06,22,13,59,14.50
2012,06,22,14,00,14.40
2012,06,22,14,01,14.40
2012,06,22,14,02,14.40
2012,06,22,14,03,14.30
2012,06,22,14,04,14.30
2012,06,22,14,05,14.20
2012,06,22,14,06,14.20
2012,06,22,14,07,14.10
2012,06,22,14,08,14.10
2012,06,22,14,09,14.10
2012,06,22,14,10,14.00
2012,06,22,14,11,14.00
2012,06,22,14,12,13.90
2012,06,22,14,13,13.90
2012,06,22,14,14,13.90
2012,06,22,14,15,13.90
2012,06,22,14,16,13.80
2012,06,22,14,17,13.80
2012,06,22,14,18,13.80
2012,06,22,14,19,13.80
2012,06,22,14,20,13.80
2012,06,22,14,21,13.70
2012,06,22,14,22,13.70
2012,06,22,14,23,13.70
2012,06,22,14,24,13.70
2012,06,22,14,25,13.70
2012,06,22,14,26,13.70
2012,06,22,14,27,13.70
2012,06,22,14,28,13.70
2012,06,22,14,29,13.70
2012,06,22,14,30,13.70
2012,06,22,14,31,13.70
2012,06,22,14,32,13.70
2012,06,22,14,33,13.70
2012,06,22,14,34,13.70
2012,06,22,14,35,13.70
2012,06,22,14,36,13.70
2012,06,22,14,37,13.70
2012,06,22,14,38,13.70
2012,06,22,14,39,13.70
2012,06,22,14,40,13.70
2012,06,22,14,41,13.70
2012,06,22,14,42,13.70
2012,06,22,14,43,13.60
2012,06,22,14,44,13.60
2012,06,22,14,45,13.60
2012,06,22,14,46,13.60
2012,06,22,14,47,13.60
2012,06,22,14,48,13.60
2012,06,22,14,49,13.60
2012,06,22,14,50,13.60
2012,06,22,14,51,13.50
2012,06,22,14,52,13.50
2012,06,22,14,53,13.50
2012,06,22,14,54,13.50
2012,06,22,14,55,13.50
2012,06,22,14,56,13.50
2012,06,22,14,57,13.40
2012,06,22,14,58,13.40
2012,06,22,14,59,13.40
2012,06,22,15,00,13.40
2012,06,22,15,01,13.40
2012,06,22,15,02,13.40
2012,06,22,15,03,13.40
2012,06,22,15,04,13.40
2012,06,22,15,05,13.40
2012,06,22,15,06,13.40
2012,06,22,15,07,13.40
2012,06,22,15,08,13.40
2012,06,22,15,09,13.40
2012,06,22,15,10,13.40
2012,06,22,15,11,13.40
2012,06,22,15,12,13.40
2012,06,22,15,13,13.40
2012,06,22,15,14,13.40
2012,06,22,15,15,13.50
2012,06,22,15,16,13.50
2012,06,22,15,17,13.50
2012,06,22,15,18,13.50
2012,06,22,15,19,13.50
2012,06,22,15,20,13.50
2012,06,22,15,21,13.50
2012,06,22,15,22,13.50
2012,06,22,15,23,13.50
2012,06,22,15,24,13.60
2012,06,22,15,25,13.60
2012,06,22,15,26,13.60
2012,06,22,15,27,13.60
2012,06,22,15,28,13.60
2012,06,22,15,29,13.60
2012,06,22,15,30,13.60
2012,06,22,15,31,13.60
2012,06,22,15,32,13.60
2012,06,22,15,33,13.60
2012,06,22,15,34,13.60
2012,06,22,15,35,13.60
2012,06,22,15,36,13.60
2012,06,22,15,37,13.60
2012,06,22,15,38,13.60
2012,06,22,15,39,13.60
2012,06,22,15,40,13.60
2012,06,22,15,41,13.70
2012,06,22,15,42,13.70
2012,06,22,15,43,13.70
2012,06,22,15,44,13.80
2012,06,22,15,45,13.70
2012,06,22,15,46,13.70
2012,06,22,15,47,13.70
2012,06,22,15,48,13.70
2012,06,22,15,49,13.70
2012,06,22,15,50,13.70
2012,06,22,15,51,13.70
2012,06,22,15,52,13.70
2012,06,22,15,53,13.70
2012,06,22,15,54,13.70
2012,06,22,15,55,13.70
2012,06,22,15,56,13.70
2012,06,22,15,57,13.70
2012,06,22,15,58,13.70
2012,06,22,15,59,13.70
2012,06,22,16,00,13.80
2012,06,22,16,01,13.70
2012,06,22,16,02,13.80
2012,06,22,16,03,13.70
2012,06,22,16,04,13.70
2012,06,22,16,05,13.70
2012,06,22,16,06,13.80
2012,06,22,16,07,13.80
2012,06,22,16,08,13.80
2012,06,22,16,09,13.80
2012,06,22,16,10,13.80
2012,06,22,16,11,13.80
2012,06,22,16,12,13.80
2012,06,22,16,13,13.70
2012,06,22,16,14,13.70
2012,06,22,16,15,13.70
2012,06,22,16,16,13.70
2012,06,22,16,17,13.60
2012,06,22,16,18,13.60
2012,06,22,16,19,13.60
2012,06,22,16,20,13.60
2012,06,22,16,21,13.60
2012,06,22,16,22,13.60
2012,06,22,16,23,13.60
2012,06,22,16,24,13.60
2012,06,22,16,25,13.60
2012,06,22,16,26,13.60
2012,06,22,16,27,13.60
2012,06,22,16,28,13.60
2012,06,22,16,29,13.70
2012,06,22,16,30,13.60
2012,06,22,16,31,13.60
2012,06,22,16,32,13.60
2012,06,22,16,33,13.70
2012,06,22,16,34,13.70
2012,06,22,16,35,13.70
2012,06,22,16,36,13.60
2012,06,22,16,37,13.60
2012,06,22,16,38,13.60
2012,06,22,16,39,13.60
2012,06,22,16,40,13.60
2012,06,22,16,41,13.60
2012,06,22,16,42,13.60
2012,06,22,16,43,13.60
2012,06,22,16,44,13.60
2012,06,22,16,45,13.60
2012,06,22,16,46,13.70
2012,06,22,16,47,13.60
2012,06,22,16,48,13.60
2012,06,22,16,49,13.60
2012,06,22,16,50,13.60
2012,06,22,16,51,13.60
2012,06,22,16,52,13.60
2012,06,22,16,53,13.50
2012,06,22,16,54,13.50
2012,06,22,16,55,13.50
2012,06,22,16,56,13.50
2012,06,22,16,57,13.50
2012,06,22,16,58,13.50
2012,06,22,16,59,13.50
2012,06,22,17,00,13.50
2012,06,22,17,01,13.50
2012,06,22,17,02,13.40
2012,06,22,17,03,13.40
2012,06,22,17,04,13.40
2012,06,22,17,05,13.40
2012,06,22,17,06,13.40
2012,06,22,17,07,13.40
2012,06,22,17,08,13.40
2012,06,22,17,09,13.40
2012,06,22,17,10,13.40
2012,06,22,17,11,13.40
2012,06,22,17,12,13.40
2012,06,22,17,13,13.30
2012,06,22,17,14,13.30
2012,06,22,17,15,13.20
2012,06,22,17,16,13.20
2012,06,22,17,17,13.20
2012,06,22,17,18,13.20
2012,06,22,17,19,13.20